UAL481 KIAH-KDFW

Flight info

Callsign UAL481
Flight time 0h 42m
Altitude 28000
Route BLTWY7 CRIED WHINY4
Aircraft B738/M-SDE2E3FGHIRWXY/LB1

Departure

Time 2026-04-30 22:08
Airport George Bush Intercontinental Airport (KIAH)

Arrival

Time 2026-04-30 22:50
Airport Dallas Fort Worth International Airport (KDFW)
Time Latitude Longitude Altitude Speed Heading
2026-04-30 21:37 29.98404 -95.33801 106 ft 0 kts 324°
2026-04-30 21:53 29.98399 -95.33797 106 ft 2 kts 324°
2026-04-30 21:54 29.98386 -95.33787 105 ft 2 kts 317°
2026-04-30 21:54 29.98376 -95.33771 105 ft 3 kts 289°
2026-04-30 21:54 29.98373 -95.33751 103 ft 3 kts 259°
2026-04-30 21:54 29.98379 -95.33732 104 ft 3 kts 230°
2026-04-30 21:55 29.98393 -95.33719 104 ft 3 kts 201°
2026-04-30 21:55 29.98400 -95.33716 105 ft 0 kts 187°
2026-04-30 22:01 29.98398 -95.33716 105 ft 1 kts 187°
2026-04-30 22:01 29.98355 -95.33729 106 ft 12 kts 208°
2026-04-30 22:02 29.98313 -95.33791 106 ft 8 kts 275°
2026-04-30 22:02 29.98316 -95.33894 106 ft 18 kts 270°
2026-04-30 22:02 29.98346 -95.34042 106 ft 21 kts 302°
2026-04-30 22:02 29.98375 -95.34216 106 ft 25 kts 270°
2026-04-30 22:03 29.98375 -95.34387 106 ft 23 kts 256°
2026-04-30 22:03 29.98326 -95.34566 106 ft 22 kts 268°
2026-04-30 22:03 29.98325 -95.34750 106 ft 24 kts 269°
2026-04-30 22:03 29.98323 -95.34945 106 ft 24 kts 270°
2026-04-30 22:04 29.98334 -95.35139 105 ft 24 kts 299°
2026-04-30 22:04 29.98467 -95.35255 106 ft 25 kts 332°
2026-04-30 22:04 29.98786 -95.35450 106 ft 23 kts 334°
2026-04-30 22:05 29.98874 -95.35557 106 ft 18 kts 258°
2026-04-30 22:05 29.98835 -95.35660 106 ft 0 kts 243°
2026-04-30 22:06 29.98832 -95.35666 106 ft 4 kts 243°
2026-04-30 22:07 29.98792 -95.35739 106 ft 17 kts 219°
2026-04-30 22:07 29.98646 -95.35700 107 ft 29 kts 150°
2026-04-30 22:07 29.98439 -95.35574 106 ft 39 kts 152°
2026-04-30 22:07 29.98155 -95.35398 106 ft 64 kts 152°
2026-04-30 22:08 29.97526 -95.35013 105 ft 138 kts 152°
2026-04-30 22:08 29.96482 -95.34413 201 ft 191 kts 151°
2026-04-30 22:08 29.95233 -95.33721 996 ft 198 kts 150°
2026-04-30 22:08 29.94122 -95.32908 2176 ft 184 kts 131°
2026-04-30 22:09 29.93580 -95.31740 3235 ft 162 kts 99°
2026-04-30 22:09 29.93800 -95.30446 3696 ft 173 kts 57°
2026-04-30 22:09 29.94764 -95.29549 3970 ft 191 kts 20°
2026-04-30 22:09 29.96086 -95.29448 3992 ft 191 kts 352°
2026-04-30 22:10 29.97417 -95.29664 3961 ft 194 kts 352°
2026-04-30 22:10 29.98754 -95.29878 4239 ft 195 kts 352°
2026-04-30 22:10 30.00154 -95.30195 4731 ft 221 kts 343°
2026-04-30 22:10 30.01715 -95.30694 5131 ft 247 kts 342°
2026-04-30 22:11 30.05318 -95.31878 6543 ft 283 kts 343°
2026-04-30 22:11 30.07216 -95.32489 7293 ft 287 kts 342°
2026-04-30 22:11 30.09155 -95.33103 7979 ft 290 kts 342°
2026-04-30 22:12 30.11122 -95.33721 8627 ft 294 kts 342°
2026-04-30 22:12 30.13110 -95.34343 9311 ft 297 kts 342°
2026-04-30 22:12 30.15124 -95.34970 9944 ft 302 kts 342°
2026-04-30 22:12 30.17190 -95.35614 10341 ft 316 kts 341°
2026-04-30 22:13 30.19357 -95.36293 10514 ft 336 kts 341°
2026-04-30 22:13 30.21683 -95.37019 10653 ft 356 kts 341°
2026-04-30 22:13 30.24130 -95.37780 10892 ft 369 kts 341°
2026-04-30 22:13 30.26633 -95.38555 11388 ft 374 kts 341°
2026-04-30 22:14 30.29159 -95.39336 12003 ft 375 kts 341°
2026-04-30 22:14 30.31664 -95.40110 12624 ft 377 kts 340°
2026-04-30 22:14 30.34214 -95.40900 13232 ft 379 kts 340°
2026-04-30 22:14 30.36790 -95.41700 13828 ft 382 kts 339°
2026-04-30 22:15 30.39328 -95.42489 14436 ft 382 kts 339°
2026-04-30 22:15 30.41902 -95.43288 15154 ft 380 kts 338°
2026-04-30 22:15 30.44468 -95.44086 15843 ft 380 kts 338°
2026-04-30 22:15 30.47017 -95.44880 16496 ft 380 kts 338°
2026-04-30 22:16 30.49544 -95.45668 17146 ft 380 kts 337°
2026-04-30 22:16 30.52105 -95.46467 17805 ft 380 kts 337°
2026-04-30 22:17 30.59795 -95.48872 19288 ft 387 kts 337°
2026-04-30 22:17 30.62440 -95.49613 19716 ft 393 kts 340°
2026-04-30 22:17 30.67863 -95.50846 20601 ft 400 kts 342°
2026-04-30 22:18 30.70614 -95.51440 21014 ft 403 kts 342°
2026-04-30 22:18 30.76174 -95.52659 21818 ft 409 kts 341°
2026-04-30 22:19 30.81784 -95.53917 22587 ft 415 kts 342°
2026-04-30 22:19 30.84637 -95.54563 22966 ft 418 kts 342°
2026-04-30 22:19 30.90357 -95.55861 23660 ft 423 kts 342°
2026-04-30 22:20 30.93253 -95.56519 23985 ft 425 kts 341°
2026-04-30 22:20 30.99083 -95.57844 24643 ft 427 kts 341°
2026-04-30 22:20 31.01976 -95.58503 24959 ft 429 kts 341°
2026-04-30 22:21 31.04914 -95.59172 25265 ft 430 kts 341°
2026-04-30 22:21 31.07865 -95.59845 25566 ft 432 kts 341°
2026-04-30 22:21 31.10828 -95.60521 25879 ft 433 kts 341°
2026-04-30 22:21 31.13764 -95.61191 26175 ft 434 kts 341°
2026-04-30 22:22 31.16737 -95.61870 26476 ft 436 kts 340°
2026-04-30 22:22 31.19725 -95.62553 26766 ft 437 kts 340°
2026-04-30 22:22 31.22719 -95.63237 27118 ft 436 kts 340°
2026-04-30 22:22 31.25664 -95.63905 27756 ft 427 kts 340°
2026-04-30 22:23 31.28580 -95.64573 27927 ft 427 kts 340°
2026-04-30 22:23 31.31481 -95.65243 27926 ft 433 kts 340°
2026-04-30 22:23 31.34390 -95.66112 27937 ft 429 kts 333°
2026-04-30 22:23 31.37141 -95.67415 27939 ft 422 kts 325°
2026-04-30 22:24 31.39650 -95.69135 27948 ft 416 kts 320°
2026-04-30 22:24 31.42103 -95.70963 27941 ft 417 kts 320°
2026-04-30 22:24 31.44558 -95.72800 27946 ft 418 kts 320°
2026-04-30 22:24 31.46981 -95.74603 27950 ft 418 kts 320°
2026-04-30 22:25 31.49451 -95.76430 27952 ft 418 kts 320°
2026-04-30 22:25 31.51917 -95.78246 27947 ft 417 kts 320°
2026-04-30 22:25 31.54324 -95.80011 27939 ft 405 kts 320°
2026-04-30 22:25 31.56692 -95.81744 27939 ft 396 kts 320°
2026-04-30 22:26 31.61334 -95.85165 27956 ft 394 kts 319°
2026-04-30 22:26 31.63643 -95.86872 27588 ft 397 kts 320°
2026-04-30 22:26 31.65978 -95.88592 27121 ft 392 kts 320°
2026-04-30 22:27 31.68248 -95.90262 26640 ft 387 kts 320°
2026-04-30 22:27 31.70529 -95.91935 26118 ft 385 kts 320°
2026-04-30 22:27 31.75180 -95.95060 25052 ft 383 kts 322°
2026-04-30 22:28 31.79819 -95.98126 23998 ft 380 kts 322°
2026-04-30 22:28 31.82117 -95.99666 23458 ft 380 kts 322°
2026-04-30 22:29 31.88830 -96.04347 21982 ft 367 kts 320°
2026-04-30 22:29 31.90996 -96.05922 21566 ft 365 kts 320°
2026-04-30 22:30 31.99478 -96.12079 19911 ft 353 kts 320°
2026-04-30 22:31 32.05796 -96.16661 18671 ft 358 kts 321°
2026-04-30 22:32 32.12085 -96.21214 17356 ft 350 kts 321°
2026-04-30 22:32 32.16215 -96.24209 16540 ft 346 kts 322°
2026-04-30 22:33 32.22304 -96.28635 15338 ft 342 kts 322°
2026-04-30 22:33 32.26349 -96.31577 14549 ft 339 kts 322°
2026-04-30 22:34 32.31243 -96.36994 13379 ft 312 kts 307°
2026-04-30 22:35 32.34347 -96.40455 12622 ft 304 kts 315°
2026-04-30 22:36 32.39892 -96.47309 11443 ft 266 kts 295°
2026-04-30 22:36 32.40747 -96.49161 11214 ft 256 kts 295°
2026-04-30 22:37 32.43341 -96.54772 10076 ft 258 kts 295°
2026-04-30 22:37 32.44212 -96.56640 9756 ft 261 kts 296°
2026-04-30 22:37 32.45978 -96.60415 9114 ft 264 kts 296°
2026-04-30 22:38 32.47751 -96.64196 8493 ft 258 kts 296°
2026-04-30 22:38 32.49269 -96.67931 7866 ft 246 kts 277°
2026-04-30 22:39 32.49410 -96.69929 7589 ft 242 kts 271°
2026-04-30 22:39 32.49736 -96.75877 6664 ft 242 kts 271°
2026-04-30 22:40 32.50364 -96.81820 6010 ft 249 kts 292°
2026-04-30 22:41 32.52464 -96.86674 5992 ft 244 kts 294°
2026-04-30 22:41 32.53948 -96.90113 5988 ft 226 kts 294°
2026-04-30 22:42 32.56785 -96.96783 6000 ft 228 kts 293°
2026-04-30 22:43 32.58211 -97.00148 5999 ft 228 kts 293°
2026-04-30 22:43 32.60450 -97.02689 6003 ft 241 kts 344°
2026-04-30 22:44 32.63873 -97.02844 5453 ft 259 kts 359°
2026-04-30 22:45 32.70668 -97.02703 3936 ft 213 kts
2026-04-30 22:45 32.73429 -97.02693 3423 ft 184 kts
2026-04-30 22:46 32.75765 -97.02682 2960 ft 153 kts
2026-04-30 22:47 32.79896 -97.02659 2178 ft 146 kts
2026-04-30 22:47 32.81903 -97.02650 1805 ft 145 kts
2026-04-30 22:48 32.83924 -97.02640 1396 ft 148 kts
2026-04-30 22:49 32.87010 -97.02626 833 ft 150 kts
2026-04-30 22:49 32.89912 -97.02609 570 ft 67 kts
2026-04-30 22:50 32.90414 -97.03338 571 ft 23 kts 194°
2026-04-30 22:51 32.90237 -97.03315 573 ft 0 kts 178°
2026-04-30 22:51 32.90161 -97.03315 575 ft 20 kts 182°
2026-04-30 22:52 32.90110 -97.03485 575 ft 34 kts 270°
2026-04-30 22:52 32.90040 -97.03674 580 ft 0 kts 191°
2026-04-30 22:53 32.90039 -97.03674 580 ft 0 kts 193°
2026-04-30 22:53 32.90037 -97.03675 580 ft 0 kts 193°